GW2728 Weather Reports


time (UTC)temp
C
wind
direction
speed
KPH
gust
KPH
rain 1hr
cm
rain 24hr
cm
rain mn
cm
humidity
%
barometer
mb
20260508074537 8 221 1.6 8.0 0.00 0.00 0.00 74 1012.4
20260508073037 8 261 3.2 14.5 0.00 0.00 0.00 72 1012.5
20260508071536 8 214 3.2 11.3 0.00 0.00 0.00 70 1012.7
20260508070040 8 220 4.8 17.7 0.00 0.00 0.00 67 1012.6
20260508064541 8 193 1.6 9.7 0.00 0.00 0.00 66 1012.7
20260508063110 8 259 0.0 6.4 0.00 0.00 0.00 66 1012.5
20260508061537 8 251 0.0 3.2 0.00 0.00 0.00 66 1012.7
20260508060037 8 0 0.0 3.2 0.00 0.00 0.00 67 1012.7
20260508054541 8 0 0.0 1.6 0.00 0.00 0.00 67 1012.8
20260508053050 8 234 0.0 1.6 0.00 0.00 0.00 67 1013.1
20260508051618 8 234 0.0 4.8 0.00 0.00 0.00 67 1013.2
20260508050038 8 236 0.0 1.6 0.00 0.00 0.00 67 1013.2
20260508044537 8 252 0.0 1.6 0.00 0.00 0.00 66 1013.2
20260508043036 8 0 0.0 6.4 0.00 0.00 0.00 65 1013.3
20260508041536 8 200 0.0 3.2 0.00 0.00 0.00 65 1013.3
20260508040035 8 0 0.0 3.2 0.00 0.00 0.00 65 1013.3
20260508034538 8 194 0.0 16.1 0.00 0.00 0.00 64 1013.3
20260508033044 7 205 1.6 9.7 0.00 0.00 0.00 67 1013.4
20260508031539 6 0 0.0 0.0 0.00 0.00 0.00 69 1013.4
20260508030044 6 0 0.0 0.0 0.00 0.00 0.00 68 1013.4
20260508024539 6 0 0.0 0.0 0.00 0.00 0.00 67 1013.4
20260508023037 6 0 0.0 0.0 0.00 0.00 0.00 66 1013.2
20260508021540 7 0 0.0 0.0 0.00 0.00 0.00 63 1013.2
20260508020037 7 0 0.0 0.0 0.00 0.00 0.00 61 1013.1
20260508014537 7 0 0.0 0.0 0.00 0.00 0.00 60 1013.1
20260508013037 7 0 0.0 0.0 0.00 0.00 0.00 59 1013.0
20260508011540 8 0 0.0 0.0 0.00 0.00 0.00 56 1012.9
20260508010055 8 0 0.0 0.0 0.00 0.00 0.00 52 1012.9
20260508004537 9 0 0.0 0.0 0.00 0.00 0.00 50 1012.9
20260508003036 10 0 0.0 8.0 0.00 0.00 0.00 46 1012.9
20260508001537 10 308 1.6 8.0 0.00 0.00 0.00 46 1012.8
20260508000044 11 288 3.2 9.7 0.00 0.00 0.00 45 1012.7
20260507234537 11 0 4.8 17.7 0.00 0.00 0.00 44 1012.6
20260507233040 11 330 3.2 17.7 0.00 0.00 0.00 44 1012.5
20260507231536 11 324 3.2 19.3 0.00 0.00 0.00 43 1012.5
20260507230053 11 354 6.4 16.1 0.00 0.00 0.00 44 1012.7
20260507224536 11 338 6.4 25.7 0.00 0.00 0.00 44 1012.8
20260507223115 12 333 8.0 24.1 0.00 0.00 0.00 41 1012.7
20260507221537 12 256 3.2 19.3 0.00 0.00 0.00 41 1012.7
20260507220035 12 244 9.7 24.1 0.00 0.00 0.00 38 1012.8
20260507214542 12 270 6.4 20.9 0.00 0.00 0.00 41 1012.5
20260507213037 12 242 9.7 24.1 0.00 0.00 0.00 40 1012.6
20260507211538 12 268 8.0 20.9 0.00 0.00 0.00 48 1012.4
20260507210046 12 240 6.4 14.5 0.00 0.00 0.00 48 1012.2
20260507204542 11 356 4.8 19.3 0.00 0.00 0.00 54 1012.0
20260507203041 11 316 3.2 20.9 0.00 0.00 0.00 53 1012.2
20260507201541 12 254 9.7 20.9 0.00 0.00 0.00 52 1012.2
20260507200050 12 240 4.8 22.5 0.00 0.00 0.00 56 1012.0
20260507194539 12 312 8.0 17.7 0.00 0.00 0.00 50 1012.0
20260507193045 12 312 4.8 19.3 0.00 0.00 0.00 46 1012.1
20260507191538 12 262 3.2 20.9 0.00 0.00 0.00 52 1012.1
20260507190039 12 254 6.4 14.5 0.00 0.00 0.00 52 1012.3
20260507184536 12 204 4.8 14.5 0.00 0.00 0.00 52 1012.2
20260507183040 12 286 1.6 11.3 0.00 0.00 0.00 53 1012.4
20260507181539 12 357 3.2 12.9 0.00 0.00 0.00 55 1012.6
20260507180039 12 254 3.2 16.1 0.00 0.00 0.00 52 1012.5
20260507174548 12 315 1.6 9.7 0.00 0.00 0.00 50 1012.4
20260507173038 12 66 4.8 16.1 0.00 0.00 0.00 47 1012.6
20260507171539 12 0 3.2 11.3 0.00 0.00 0.00 48 1012.6
20260507170043 12 266 11.3 22.5 0.00 0.00 0.00 52 1012.7
20260507164538 12 319 12.9 20.9 0.00 0.00 0.00 50 1012.8
20260507163037 12 24 3.2 14.5 0.00 0.00 0.00 53 1012.7
20260507161544 12 330 3.2 11.3 0.00 0.00 0.00 55 1012.8
20260507160040 12 240 3.2 14.5 0.00 0.00 0.00 48 1012.8
20260507154534 12 308 1.6 12.9 0.00 0.00 0.00 48 1012.7
20260507153037 12 238 3.2 9.7 0.00 0.00 0.00 47 1012.8
20260507151539 12 334 3.2 9.7 0.00 0.00 0.00 49 1012.8
20260507150043 12 160 6.4 14.5 0.00 0.00 0.00 47 1012.9
20260507144539 12 217 3.2 11.3 0.00 0.00 0.00 51 1012.8
20260507143037 11 328 4.8 11.3 0.00 0.00 0.00 56 1012.8
20260507141535 11 314 1.6 11.3 0.00 0.00 0.00 59 1012.9
20260507140035 10 348 3.2 8.0 0.00 0.00 0.00 66 1013.1
20260507134539 10 232 0.0 8.0 0.00 0.03 0.00 68 1013.3
20260507133038 10 3 1.6 6.4 0.00 0.03 0.00 68 1013.2
20260507131537 9 228 0.0 6.4 0.00 0.03 0.00 68 1013.4
20260507130054 8 147 0.0 1.6 0.00 0.03 0.00 71 1013.4
20260507124536 8 290 0.0 4.8 0.00 0.03 0.00 71 1013.3
20260507123040 7 0 0.0 6.4 0.00 0.03 0.00 74 1013.3
20260507121543 7 0 0.0 6.4 0.00 0.03 0.00 76 1013.3
20260507120040 7 211 1.6 8.0 0.00 0.03 0.00 76 1013.2
20260507114537 6 0 0.0 6.4 0.00 0.03 0.00 77 1013.0
20260507113037 5 0 0.0 0.0 0.00 0.03 0.00 80 1013.0
20260507111536 5 0 0.0 0.0 0.00 0.03 0.00 82 1013.0
20260507110036 5 0 0.0 0.0 0.00 0.03 0.00 82 1012.9
20260507104538 5 0 0.0 0.0 0.00 0.03 0.00 82 1012.8
20260507103036 5 0 0.0 0.0 0.00 0.03 0.00 82 1012.6
20260507101541 5 0 0.0 0.0 0.00 0.03 0.00 82 1012.7
20260507100048 5 0 0.0 0.0 0.00 0.03 0.00 80 1012.6
20260507094537 5 0 0.0 0.0 0.00 0.08 0.00 80 1012.7
20260507093035 5 0 0.0 0.0 0.00 0.08 0.00 80 1012.7
20260507091538 5 0 0.0 0.0 0.00 0.08 0.00 81 1012.7
20260507090039 5 0 0.0 0.0 0.00 0.08 0.00 81 1012.7
20260507084544 5 0 0.0 0.0 0.00 0.23 0.00 83 1012.7
20260507083051 5 0 0.0 0.0 0.00 0.23 0.00 83 1012.8
20260507081538 4 0 0.0 0.0 0.00 0.23 0.00 84 1012.8
20260507080040 4 0 0.0 0.0 0.00 0.23 0.00 83 1012.9